Weather History for Ostrava, Czech Republic

Change the Weather History Date:

Tuesday, June 24, 2014

  Actual Average (EPKT) Record (EPKT)
Temperature  
Mean Temperature 58 °F -  
Max Temperature 69 °F 73 °F 78 °F (2012)
Min Temperature 48 °F 53 °F 42 °F (1999)
Degree Days  
Heating Degree Days 6    
Growing Degree Days 8 (Base 50)    
Moisture  
Dew Point 46 °F    
Average Humidity 60    
Maximum Humidity 87    
Minimum Humidity 29    
Precipitation  
Precipitation 0.00 in 0.12 in - ()
Sea Level Pressure  
Sea Level Pressure 29.99 in    
Wind  
Wind Speed 3 mph ()    
Max Wind Speed 9 mph    
Max Gust Speed -    
Visibility 13.2 miles    
Events      
Averages and records for this station are not official NWS values.
T = Trace of Precipitation, MM = Missing Value Source: Averaged Metar Reports

Daily Weather History Graph

Daily Weather History Graph

Search for Another Location

Airport:

Trip Planner

Search our weather history database for the weather conditions in past years. The results will help you decide how hot, cold, wet, or windy it might be!

Date:

Astronomy

Jun. 24, 2014 Rise Set
Actual Time 4:40 AM CEST 8:59 PM CEST
Civil Twilight 3:56 AM CEST 9:43 PM CEST
Nautical Twilight 2:52 AM CEST 10:47 PM CEST
Astronomical Twilight 1:22 AM CEST 12:17 AM CEST
Moon 2:48 AM CEST (6/24) 6:09 PM CEST (6/24)
Length of Visible Light 17h 46m
Length of Day
16h 18m
Waning Crescent, 8% of the Moon is Illuminated
Jun 24
Waning Crescent
Jun 27
New
Jul 5
First Quarter
Jul 12
Full
Jul 19
Last Quarter

Hourly Weather History & Observations

Time (CEST) Temp. Dew Point Humidity Pressure Visibility Wind Dir Wind Speed Gust Speed Precip Events Conditions
12:00 AM 55 °F 45 °F 60% 30.07 in 19 mi SSE 4.5 mph - -   Clear
12:00 AM 55.4 °F 46.4 °F 72% 30.06 in - SE 3.5 mph - N/A   Clear
12:30 AM 50.0 °F 44.6 °F 82% 30.04 in - Calm Calm - N/A   Clear
1:00 AM 52 °F 45 °F 69% 30.06 in 19 mi SW 2.2 mph - -   Scattered Clouds
1:00 AM 51.8 °F 44.6 °F 76% 30.04 in - SSW 2.3 mph - N/A   Clear
1:30 AM 50.0 °F 44.6 °F 82% 30.04 in - Calm Calm - N/A   Clear
2:00 AM 49 °F 46 °F 87% 30.04 in 19 mi NNE 2.2 mph - -   Mostly Cloudy
2:00 AM 48.2 °F 44.6 °F 87% 30.04 in - NNE 2.3 mph - N/A   Clear
2:30 AM 51.8 °F 46.4 °F 82% 30.01 in - Calm Calm - N/A   Clear
3:00 AM 51 °F 46 °F 77% 30.04 in 19 mi WSW 2.2 mph - -   Mostly Cloudy
3:00 AM 50.0 °F 46.4 °F 87% 30.01 in - WSW 2.3 mph - N/A   Clear
3:30 AM 50.0 °F 46.4 °F 87% 30.01 in - SSW 2.3 mph - N/A   Clear
4:00 AM 51 °F 46 °F 77% 30.03 in 12 mi WNW 2.2 mph - -   Mostly Cloudy
4:00 AM 51.8 °F 46.4 °F 82% 30.01 in - WNW 1.2 mph - N/A   Clear
4:30 AM 50.0 °F 46.4 °F 87% 30.01 in - North 1.2 mph - N/A   Clear
5:00 AM 50 °F 47 °F 84% 30.02 in 16 mi 2.2 mph - -   Partly Cloudy
5:00 AM 50.0 °F 46.4 °F 87% 30.01 in - Variable 2.3 mph - N/A   Clear
5:30 AM 50.0 °F 46.4 °F 87% 30.01 in - Calm Calm - N/A   Clear
6:00 AM 51 °F 47 °F 83% 30.03 in 12 mi ENE 2.2 mph - -   Scattered Clouds
6:00 AM 51.8 °F 46.4 °F 82% 30.01 in - Variable 1.2 mph - N/A   Clear
6:30 AM 51.8 °F 46.4 °F 82% 30.01 in - SE 3.5 mph - N/A   Clear
7:00 AM 53 °F 46 °F 71% 30.02 in 12 mi 2.2 mph - -   Mostly Cloudy
7:00 AM 53.6 °F 46.4 °F 77% 30.01 in - Variable 2.3 mph - N/A   Clear
7:30 AM 55.4 °F 46.4 °F 72% 30.01 in - Variable 2.3 mph - N/A   Clear
8:00 AM 56 °F 46 °F 60% 30.02 in 16 mi 2.2 mph - -   Scattered Clouds
8:00 AM 55.4 °F 48.2 °F 77% 30.01 in - Variable 2.3 mph - N/A   Clear
8:30 AM 55.4 °F 46.4 °F 72% 30.01 in - NNE 3.5 mph - N/A   Clear
9:00 AM 59 °F 47 °F 55% 30.01 in 16 mi 4.5 mph - -   Clear
9:00 AM 59.0 °F 48.2 °F 67% 30.01 in - NNE 3.5 mph - N/A   Clear
9:30 AM 60.8 °F 48.2 °F 63% 30.01 in 6.2 mi North 4.6 mph - N/A   Partly Cloudy
10:00 AM 64 °F 44 °F 37% 30.00 in 22 mi NE 8.9 mph - -   Scattered Clouds
10:00 AM 64.4 °F 44.6 °F 49% 30.01 in 6.2 mi NE 8.1 mph - N/A   Partly Cloudy
10:30 AM 64.4 °F 44.6 °F 49% 30.01 in 6.2 mi NNE 8.1 mph - N/A   Partly Cloudy
11:00 AM 64 °F 44 °F 36% 30.00 in 25 mi North 6.7 mph - -   Scattered Clouds
11:00 AM 64.4 °F 44.6 °F 49% 30.01 in 6.2 mi Variable 5.8 mph - N/A   Partly Cloudy
11:30 AM 66.2 °F 44.6 °F 46% 30.01 in 6.2 mi NNE 6.9 mph - N/A   Partly Cloudy
12:00 PM 65 °F 43 °F 33% 29.99 in 25 mi NNE 6.7 mph - -   Scattered Clouds
12:00 PM 66.2 °F 44.6 °F 46% 30.01 in - Variable 5.8 mph - N/A   Clear
12:30 PM 66.2 °F 42.8 °F 43% 30.01 in - NW 6.9 mph - N/A   Clear
1:00 PM 68 °F 45 °F 32% 29.99 in 25 mi 4.5 mph - -   Scattered Clouds
1:00 PM 68.0 °F 44.6 °F 43% 30.01 in - NE 5.8 mph - N/A   Clear
1:30 PM 66.2 °F 44.6 °F 46% 30.01 in - NE 4.6 mph - N/A   Clear
2:00 PM 68 °F 43 °F 29% 29.97 in 25 mi NNE 6.7 mph - -   Scattered Clouds
2:00 PM 68.0 °F 42.8 °F 40% 29.98 in - ENE 5.8 mph - N/A   Clear
2:30 PM 69.8 °F 46.4 °F 43% 29.98 in - NNE 5.8 mph - N/A   Clear
3:00 PM 68 °F 46 °F 34% 29.96 in 25 mi NNE 6.7 mph - -   Partly Cloudy
3:00 PM 69.8 °F 44.6 °F 40% 29.98 in - North 5.8 mph - N/A   Clear
3:30 PM 68.0 °F 42.8 °F 40% 29.98 in - NE 3.5 mph - N/A   Clear
4:00 PM 68 °F 44 °F 30% 29.96 in 25 mi 4.5 mph - -   Partly Cloudy
4:00 PM 68.0 °F 44.6 °F 43% 29.98 in - Variable 2.3 mph - N/A   Clear
4:30 PM 68.0 °F 44.6 °F 43% 29.98 in - NW 3.5 mph - N/A   Clear
5:00 PM 69 °F 48 °F 36% 29.95 in 25 mi 2.2 mph - -   Mostly Cloudy
5:00 PM 68.0 °F 46.4 °F 46% 29.95 in - Variable 2.3 mph - N/A   Clear
5:30 PM 68.0 °F 44.6 °F 43% 29.95 in - North 3.5 mph - N/A   Clear
6:00 PM 67 °F 47 °F 38% 29.94 in 19 mi North 6.7 mph - -   Scattered Clouds
6:00 PM 68.0 °F 48.2 °F 49% 29.95 in - North 5.8 mph - N/A   Clear
6:30 PM 66.2 °F 48.2 °F 52% 29.95 in - North 6.9 mph - N/A   Clear
7:00 PM 67 °F 48 °F 39% 29.94 in 25 mi North 6.7 mph - -   Scattered Clouds
7:00 PM 66.2 °F 48.2 °F 52% 29.95 in - North 6.9 mph - N/A   Clear
7:30 PM 66.2 °F 48.2 °F 52% 29.95 in - NNE 4.6 mph - N/A   Clear
8:00 PM 65 °F 47 °F 42% 29.94 in 25 mi North 6.7 mph - -   Mostly Cloudy
8:00 PM 64.4 °F 48.2 °F 56% 29.95 in - North 6.9 mph - N/A   Clear
8:30 PM 60.8 °F 48.2 °F 63% 29.95 in - NNE 5.8 mph - N/A   Clear
9:00 PM 60 °F 46 °F 50% 29.95 in 25 mi NE 4.5 mph - -   Scattered Clouds
9:00 PM 60.8 °F 46.4 °F 59% 29.95 in - NE 3.5 mph - N/A   Clear
9:30 PM 59.0 °F 48.2 °F 67% 29.95 in - North 4.6 mph - N/A   Clear
10:00 PM 58 °F 47 °F 57% 29.96 in 16 mi North 2.2 mph - -   Clear
10:00 PM 57.2 °F 46.4 °F 67% 29.95 in - NNE 3.5 mph - N/A   Clear
10:30 PM 59.0 °F 48.2 °F 67% 29.95 in - East 2.3 mph - N/A   Clear
11:00 PM 54 °F 47 °F 68% 29.97 in 12 mi 2.2 mph - -   Clear
11:00 PM 53.6 °F 46.4 °F 77% 29.95 in - West 3.5 mph - N/A   Clear
11:30 PM 55.4 °F 46.4 °F 72% 29.95 in - Variable 1.2 mph - N/A   Clear